Location: Camp Crooked Creek
(37.9149°N, 85.6607°W)
Time: 18:14:13
(UTC-04:00)

Amateur Radio Satellites - All Passes

Search period start: 16 October 2017 17:44
Search period end: 17 October 2017 17:44
Location: Camp Crooked Creek, 37.9149°N, 85.6607°W

Satellite Date Start Highest point End Downlink Frequencies (MHz)
Time Altitude Azimuth
BEESAT 16 Oct 17:46:56 17:51:20 38° 290° (WNW) 17:55:44 436.000
XW-2D 16 Oct 17:54:32 17:55:50 11° 66° (ENE) 17:57:08 145.860 - 145.880
DOVE 4 16 Oct 17:59:52 18:03:57 66° 76° (ENE) 18:08:10 437.250
KKS-1 16 Oct 18:04:19 18:07:51 22° 95° (E) 18:11:21 437.445
XW-2B 16 Oct 18:06:42 18:09:01 16° 68° (ENE) 18:11:20 145.730 - 145.750
NUDT-PHONESAT 16 Oct 18:12:58 18:14:40 13° 67° (ENE) 18:16:21 437.300
AO-7 16 Oct 18:14:47 18:19:46 17° 268° (W) 18:24:46 .
PCSat 16 Oct 18:14:56 18:18:28 17° 47° (NE) 18:22:01 145.827
XW-2C 16 Oct 18:28:32 18:31:51 29° 72° (ENE) 18:35:10 145.795 - 145.815
CUTE-I 16 Oct 18:39:39 18:44:34 41° 70° (ENE) 18:49:32 437.470
STARS 16 Oct 18:49:27 18:53:16 27° 97° (E) 18:57:03 437.465
HO-68 16 Oct 18:53:00 18:58:56 29° 62° (ENE) 19:04:52 435.675
nSIGHT-1 16 Oct 18:57:15 19:00:22 46° 36° (NE) 19:03:29 .
LilacSat-2 16 Oct 19:12:40 19:16:29 66° 259° (W) 19:20:18 437.200
CUTE 1.7 + AOD 2 16 Oct 19:15:27 19:18:45 22° 69° (ENE) 19:22:04 437.475
XW-2F 16 Oct 19:16:55 19:20:42 67° 259° (W) 19:24:29 145.980 - 146.000
ISS 16 Oct 19:18:57 19:22:14 68° 39° (NE) 19:25:29 437.550
SO-50 16 Oct 19:18:58 19:21:52 16° 251° (WSW) 19:24:46 436.795
CUBESAT XI-V 16 Oct 19:19:00 19:21:52 17° 294° (WNW) 19:24:44 437.345
KAITUO 1B 16 Oct 19:22:48 19:26:33 74° 259° (W) 19:30:18 145.475/437.950
XW-2D 16 Oct 19:25:54 19:29:34 45° 261° (W) 19:33:14 145.860 - 145.880
CUBEBUG 2 16 Oct 19:30:19 19:33:46 21° 67° (ENE) 19:37:17 437.445
SEEDS 16 Oct 19:31:23 19:34:29 20° 69° (ENE) 19:37:35 437.485
XW-2B 16 Oct 19:39:28 19:42:55 32° 263° (W) 19:46:21 145.730 - 145.750
KKS-1 16 Oct 19:40:27 19:44:22 31° 290° (WNW) 19:48:18 437.445
NUDT-PHONESAT 16 Oct 19:44:39 19:48:09 38° 262° (W) 19:51:39 437.300
PCSat 16 Oct 19:57:01 20:02:26 72° 245° (WSW) 20:07:48 145.827
STRAND 1 16 Oct 20:01:48 20:04:47 15° 92° (E) 20:07:46 437.568
XW-2C 16 Oct 20:03:34 20:06:02 16° 266° (W) 20:08:32 145.795 - 145.815
YUBILEINY 16 Oct 20:05:48 20:08:15 11° 59° (ENE) 20:10:40 435.215
ZACube-1 16 Oct 20:05:57 20:08:38 16° 65° (ENE) 20:11:20 437.345
AAUSAT CUBESAT 2 16 Oct 20:08:25 20:11:39 23° 70° (ENE) 20:14:53 437.432
UWE-3 16 Oct 20:16:41 20:20:55 37° 72° (ENE) 20:25:13 435.000/436.395/437.385
CUTE-I 16 Oct 20:20:36 20:24:43 23° 265° (W) 20:28:53 437.470
STARS 16 Oct 20:25:51 20:29:27 25° 292° (WNW) 20:33:03 437.465
nSIGHT-1 16 Oct 20:34:26 20:36:22 15° 231° (SW) 20:38:18 .
HO-68 16 Oct 20:39:20 20:46:15 52° 259° (W) 20:53:15 435.675
Oscar 11 16 Oct 20:49:28 20:53:04 26° 70° (ENE) 20:56:41 .
CUTE 1.7 + AOD 2 16 Oct 20:50:48 20:54:25 27° 264° (W) 20:58:03 437.475
XW-2A 16 Oct 20:52:01 20:55:25 63° 259° (W) 20:58:50 145.665 - 145.685
ISS 16 Oct 20:57:33 20:58:17 11° 233° (SW) 20:59:00 437.550
CUBEBUG 2 16 Oct 21:05:52 21:10:05 36° 263° (W) 21:14:26 437.445
SEEDS 16 Oct 21:06:18 21:09:58 29° 264° (W) 21:13:38 437.485
FO-29 16 Oct 21:13:47 21:18:16 18° 92° (E) 21:22:58 435.910
AO-73 16 Oct 21:20:27 21:25:01 88° 70° (ENE) 21:29:36 145.935
STRAND 1 16 Oct 21:39:14 21:44:17 57° 287° (WNW) 21:49:19 437.568
ZACube-1 16 Oct 21:40:03 21:44:27 49° 261° (W) 21:48:55 437.345
AAUSAT CUBESAT 2 16 Oct 21:43:33 21:46:58 25° 265° (W) 21:50:22 437.432
UWE-3 16 Oct 21:54:06 21:57:26 20° 267° (W) 22:00:50 435.000/436.395/437.385
O/OREOS (USA 219) 16 Oct 21:57:04 22:01:13 36° 104° (ESE) 22:05:24 437.305
YUBILEINY 16 Oct 21:58:08 22:06:54 66° 80° (E) 22:15:38 435.215
DELFI C3 16 Oct 22:15:16 22:19:01 49° 75° (ENE) 22:22:48 145.870
Oscar 11 16 Oct 22:25:33 22:29:07 24° 265° (W) 22:32:41 .
Max Valier Satellite 16 Oct 22:28:04 22:31:42 50° 74° (ENE) 22:35:19 145.860
EO-88 16 Oct 22:28:18 22:31:39 34° 73° (ENE) 22:34:59 145.990 - 145.960
UNISAT 6 16 Oct 22:36:01 22:39:10 18° 93° (E) 22:42:17 437.425
BEESAT 3 16 Oct 22:50:19 22:54:04 39° 55° (NE) 22:57:44 437.485
TIGRISAT 16 Oct 22:51:32 22:55:18 24° 95° (E) 22:58:59 435.000
FO-29 16 Oct 22:56:54 23:03:39 79° 286° (WNW) 23:11:11 435.910
AO-85 16 Oct 23:00:27 23:03:21 16° 47° (NE) 23:06:23 145.980
PRISM 16 Oct 23:22:27 23:25:43 22° 96° (E) 23:28:59 437.425
LO-87 16 Oct 23:31:45 23:34:44 25° 71° (ENE) 23:37:44 145.935 - 145.965
O/OREOS (USA 219) 16 Oct 23:37:17 23:40:43 21° 301° (WNW) 23:44:10 437.305
ESTCUBE 1 16 Oct 23:48:07 23:52:06 32° 70° (ENE) 23:56:06 437.505/2401.250
DELFI C3 16 Oct 23:53:39 23:54:02 10° 269° (W) 23:54:24 145.870
YUBILEINY 16 Oct 23:56:17 00:02:53 25° 278° (W) 00:09:30 435.215
BEESAT 2 17 Oct 00:00:47 00:04:50 71° 58° (ENE) 00:08:47 435.950
EO-88 17 Oct 00:03:45 00:05:24 13° 267° (W) 00:07:02 145.990 - 145.960
UNISAT 6 17 Oct 00:11:41 00:16:01 39° 288° (WNW) 00:20:14 437.425
EO-79 17 Oct 00:26:30 00:26:41 10° 90° (E) 00:26:52 145.935-145.965
TIGRISAT 17 Oct 00:27:56 00:31:56 29° 291° (WNW) 00:35:52 435.000
BEESAT 3 17 Oct 00:28:58 00:31:14 15° 251° (WSW) 00:33:28 437.485
POLYITAN 1 17 Oct 00:28:59 00:30:15 11° 91° (E) 00:31:32 437.675
AO-85 17 Oct 00:39:31 00:44:06 64° 242° (WSW) 00:49:01 145.980
FO-29 17 Oct 00:44:42 00:47:50 14° 300° (WNW) 00:51:07 435.910
QB50P2 17 Oct 00:47:11 00:50:28 21° 95° (E) 00:53:43 145.880/145.840
AIST 2D 17 Oct 00:52:25 00:55:53 70° 101° (E) 00:59:19 435.315
NANOSAT C BR1 17 Oct 00:54:46 00:57:59 20° 95° (E) 01:01:09 145.865
PRISM 17 Oct 00:57:30 01:00:54 26° 290° (WNW) 01:04:19 437.425
LO-87 17 Oct 01:05:45 01:08:06 17° 266° (W) 01:10:28 145.935 - 145.965
RS-15 17 Oct 01:07:36 01:18:11 36° 105° (ESE) 01:28:49 29.354- 29.394
DUCHIFAT 1 17 Oct 01:07:37 01:11:08 25° 96° (E) 01:14:37 145.980
DX 1 17 Oct 01:17:46 01:19:35 12° 64° (ENE) 01:21:24 434.975-435.025
SPROUT 17 Oct 01:18:13 01:22:28 78° 76° (ENE) 01:26:45 437.525
ESTCUBE 1 17 Oct 01:25:30 01:28:55 21° 265° (W) 01:32:21 437.505/2401.250
VELOX 1 17 Oct 01:31:44 01:36:06 76° 75° (ENE) 01:40:29 145.980
BUGSAT 1 17 Oct 01:33:22 01:34:50 12° 91° (E) 01:36:18 437.445
UKube-1 17 Oct 01:49:13 01:52:04 18° 66° (ENE) 01:54:56 .
EO-79 17 Oct 01:58:35 02:02:48 60° 286° (WNW) 02:06:58 145.935-145.965
POLYITAN 1 17 Oct 02:02:10 02:06:21 54° 286° (WNW) 02:10:29 437.675
QB50P2 17 Oct 02:22:32 02:26:13 29° 290° (WNW) 02:29:53 145.880/145.840
NANOSAT C BR1 17 Oct 02:29:58 02:33:40 29° 289° (WNW) 02:37:21 145.865
DUCHIFAT 1 17 Oct 02:43:14 02:46:41 24° 291° (WNW) 02:50:05 145.980
50 SAT 17 Oct 02:45:18 02:48:21 38° 261° (W) 02:51:27 437.505
DX 1 17 Oct 02:51:01 02:55:15 56° 260° (W) 02:59:31 434.975-435.025
M-CUBED/EXP-1 PRIME 17 Oct 02:55:13 02:58:24 32° 104° (ESE) 03:01:47 437.505
ITUPSAT 1 17 Oct 02:57:54 03:00:12 14° 63° (ENE) 03:02:31 437.325
MOZHAYETS 4 17 Oct 03:05:42 03:08:39 17° 66° (ENE) 03:11:35
BUGSAT 1 17 Oct 03:06:21 03:10:28 52° 286° (WNW) 03:14:33 437.445
Gurwin Techsat 1B 17 Oct 03:12:58 03:18:08 49° 100° (E) 03:23:16 435.225
Oscar 19 17 Oct 03:13:20 03:18:28 73° 103° (ESE) 03:23:34 437.125/150
BEESAT 17 Oct 03:14:48 03:18:17 21° 66° (ENE) 03:21:47 436.000
RS-15 17 Oct 03:17:44 03:29:57 66° 306° (NW) 03:42:12 29.354- 29.394
UKube-1 17 Oct 03:23:48 03:27:46 37° 261° (W) 03:31:47 .
AO-7 17 Oct 04:22:00 04:29:14 32° 98° (E) 04:36:25 .
M-CUBED/EXP-1 PRIME 17 Oct 04:30:38 04:32:37 14° 296° (WNW) 04:34:39 437.505
ITUPSAT 1 17 Oct 04:32:41 04:37:27 64° 258° (WSW) 04:42:15 437.325
MOZHAYETS 4 17 Oct 04:40:57 04:45:24 46° 261° (W) 04:49:52
CUBESAT XI-V 17 Oct 04:41:53 04:46:08 36° 71° (ENE) 04:50:22 437.345
BEESAT 17 Oct 04:51:17 04:55:45 39° 262° (W) 05:00:15 436.000
Gurwin Techsat 1B 17 Oct 04:53:53 04:57:40 20° 296° (WNW) 05:01:28 435.225
Oscar 19 17 Oct 04:54:50 04:57:07 13° 299° (WNW) 04:59:25 437.125/150
KKS-1 17 Oct 05:01:14 05:04:08 17° 66° (ENE) 05:07:04 437.445
ITAMSAT 1 17 Oct 05:16:32 05:21:46 66° 102° (ESE) 05:26:57 435.822/435.867
NO-84 17 Oct 05:18:30 05:22:49 81° 133° (SE) 05:27:03 435.350 FM
RS-15 17 Oct 05:36:04 05:45:27 24° 333° (NNW) 05:54:46 29.354- 29.394
STARS 17 Oct 05:44:42 05:47:55 20° 67° (ENE) 05:51:09 437.465
DOVE 4 17 Oct 05:59:54 06:03:50 23° 95° (E) 06:07:53 437.250
AO-7 17 Oct 06:14:14 06:22:12 53° 294° (WNW) 06:30:10 .
CUBESAT XI-V 17 Oct 06:20:11 06:23:34 20° 266° (W) 06:26:57 437.345
KKS-1 17 Oct 06:36:12 06:40:22 40° 261° (W) 06:44:33 437.445
LilacSat-2 17 Oct 06:48:52 06:50:53 14° 93° (E) 06:52:55 437.200
XW-2F 17 Oct 06:52:08 06:53:54 13° 93° (E) 06:55:40 145.980 - 146.000
KAITUO 1B 17 Oct 06:57:30 06:58:44 11° 92° (E) 06:59:57 145.475/437.950
NO-84 17 Oct 06:57:36 07:00:39 19° 330° (NNW) 07:03:38 435.350 FM
ITAMSAT 1 17 Oct 06:57:42 07:00:38 15° 298° (WNW) 07:03:33 435.822/435.867
CUTE-I 17 Oct 06:59:11 07:02:53 19° 93° (E) 07:06:34 437.470
XW-2D 17 Oct 07:00:35 07:03:18 19° 95° (E) 07:05:59 145.860 - 145.880
XW-2B 17 Oct 07:13:31 07:16:41 26° 96° (E) 07:19:52 145.730 - 145.750
STRAND 1 17 Oct 07:15:55 07:19:29 20° 65° (ENE) 07:23:06 437.568
NUDT-PHONESAT 17 Oct 07:16:49 07:19:32 20° 95° (E) 07:22:14 437.300
STARS 17 Oct 07:20:04 07:24:00 33° 262° (W) 07:28:00 437.465
XW-2C 17 Oct 07:36:08 07:39:48 54° 100° (E) 07:43:27 145.795 - 145.815
DOVE 4 17 Oct 07:37:00 07:41:30 37° 288° (WNW) 07:46:12 437.250
SO-50 17 Oct 07:50:39 07:54:11 23° 112° (ESE) 07:57:44 436.795
RS-15 17 Oct 07:56:41 08:04:24 18° 10° (N) 08:11:56 29.354- 29.394
O/OREOS (USA 219) 17 Oct 08:08:25 08:12:56 52° 66° (ENE) 08:17:24 437.305
HO-68 17 Oct 08:09:00 08:15:28 35° 97° (E) 08:21:52 435.675
AO-7 17 Oct 08:11:36 08:13:04 11° 315° (NW) 08:14:33 .
LilacSat-2 17 Oct 08:21:51 08:25:15 33° 288° (WNW) 08:28:38 437.200
XW-2F 17 Oct 08:24:44 08:28:08 34° 287° (WNW) 08:31:30 145.980 - 146.000
KAITUO 1B 17 Oct 08:29:26 08:32:52 38° 287° (WNW) 08:36:18 145.475/437.950
XW-2D 17 Oct 08:34:22 08:37:25 24° 289° (WNW) 08:40:27 145.860 - 145.880
CUTE 1.7 + AOD 2 17 Oct 08:36:29 08:40:37 55° 100° (E) 08:44:43 437.475
CUTE-I 17 Oct 08:37:59 08:43:10 51° 288° (WNW) 08:48:20 437.470
XW-2B 17 Oct 08:48:06 08:50:40 18° 291° (WNW) 08:53:13 145.730 - 145.750
NUDT-PHONESAT 17 Oct 08:50:26 08:53:19 22° 289° (WNW) 08:56:10 437.300
SEEDS 17 Oct 08:51:01 08:55:03 48° 99° (E) 08:59:04 437.485
STRAND 1 17 Oct 08:53:22 08:58:17 47° 261° (W) 09:03:15 437.568
PCSat 17 Oct 08:55:25 08:59:05 19° 105° (ESE) 09:02:44 145.827
CUBEBUG 2 17 Oct 08:58:02 09:02:38 55° 99° (E) 09:07:04 437.445
YUBILEINY 17 Oct 09:06:16 09:09:47 13° 76° (ENE) 09:13:18 435.215
FO-29 17 Oct 09:09:01 09:13:37 33° 68° (ENE) 09:18:25 435.910
AO-73 17 Oct 09:11:17 09:14:22 19° 93° (E) 09:17:25 145.935
AAUSAT CUBESAT 2 17 Oct 09:26:16 09:30:18 53° 100° (E) 09:34:19 437.432
Tancredo 1 17 Oct 09:30:06 09:30:52 12° 132° (SE) 09:31:38 437.200
ZACube-1 17 Oct 09:30:16 09:34:19 35° 97° (E) 09:38:16 437.345
JUGNU 17 Oct 09:30:21 09:32:18 12° 174° (S) 09:34:16 437.505
SO-50 17 Oct 09:30:21 09:34:26 34° 308° (NW) 09:38:33 436.795
UNISAT 6 17 Oct 09:33:48 09:36:11 14° 64° (ENE) 09:38:34 437.425
UWE-3 17 Oct 09:44:00 09:48:34 80° 283° (WNW) 09:52:58 435.000/436.395/437.385
XW-2A 17 Oct 09:47:50 09:51:03 44° 285° (WNW) 09:54:13 145.665 - 145.685
TIGRISAT 17 Oct 09:48:45 09:51:54 18° 66° (ENE) 09:55:06 435.000
O/OREOS (USA 219) 17 Oct 09:49:37 09:51:49 13° 262° (W) 09:53:59 437.305
HO-68 17 Oct 09:56:31 10:03:12 43° 294° (WNW) 10:09:52 435.675
RS-15 17 Oct 10:10:33 10:21:40 41° 43° (NE) 10:32:11 29.354- 29.394
PRISM 17 Oct 10:11:13 10:13:09 13° 65° (ENE) 10:15:06 437.425
Oscar 11 17 Oct 10:13:24 10:17:42 68° 101° (ESE) 10:21:58 .
CUTE 1.7 + AOD 2 17 Oct 10:14:26 10:15:56 12° 295° (WNW) 10:17:27 437.475
SEEDS 17 Oct 10:28:21 10:30:17 13° 294° (WNW) 10:32:12 437.485
CUBEBUG 2 17 Oct 10:36:16 10:38:41 14° 296° (WNW) 10:41:06 437.445
PCSat 17 Oct 10:36:42 10:41:59 54° 301° (WNW) 10:47:19 145.827
AO-73 17 Oct 10:46:44 10:50:41 33° 289° (WNW) 10:54:30 145.935
FO-29 17 Oct 10:54:34 10:58:48 25° 266° (W) 11:03:11 435.910
YUBILEINY 17 Oct 10:56:23 11:05:02 80° 95° (E) 11:13:46 435.215
Tancredo 1 17 Oct 11:01:15 11:02:41 18° 327° (NNW) 11:04:10 437.200
AAUSAT CUBESAT 2 17 Oct 11:03:46 11:05:16 12° 295° (WNW) 11:06:45 437.432
ZACube-1 17 Oct 11:07:14 11:10:18 19° 293° (WNW) 11:13:18 437.345
UNISAT 6 17 Oct 11:07:49 11:12:20 57° 260° (W) 11:16:57 437.425
JUGNU 17 Oct 11:18:21 11:20:25 12° 185° (S) 11:22:29 437.505
TIGRISAT 17 Oct 11:23:52 11:28:13 42° 262° (W) 11:32:40 435.000
AIST 2D 17 Oct 11:25:28 11:27:57 18° 70° (ENE) 11:30:26 435.315
DELFI C3 17 Oct 11:27:59 11:31:57 76° 282° (WNW) 11:35:53 145.870
EO-88 17 Oct 11:31:36 11:35:11 59° 100° (E) 11:38:45 145.990 - 145.960
Max Valier Satellite 17 Oct 11:33:04 11:36:46 89° 287° (WNW) 11:40:25 145.860
nSIGHT-1 17 Oct 11:33:55 11:36:50 34° 134° (SE) 11:39:46 .
QB50P2 17 Oct 11:39:04 11:41:13 14° 65° (ENE) 11:43:22 145.880/145.840
PRISM 17 Oct 11:44:08 11:48:00 45° 260° (W) 11:51:54 437.425
NANOSAT C BR1 17 Oct 11:46:15 11:48:12 13° 65° (ENE) 11:50:10 145.865
SRMSAT 17 Oct 11:47:20 11:48:39 11° 171° (S) 11:49:57 437.500
Oscar 11 17 Oct 11:52:42 11:53:13 10° 297° (WNW) 11:53:45 .
NO-84 17 Oct 11:54:15 11:57:22 24° 33° (NNE) 12:00:14 435.350 FM
ISS 17 Oct 11:57:27 12:00:38 55° 137° (SE) 12:03:50 437.550
DUCHIFAT 1 17 Oct 11:58:24 12:00:56 16° 66° (ENE) 12:03:28 145.980
RS-15 17 Oct 12:23:10 12:34:44 63° 247° (WSW) 12:45:41 29.354- 29.394
LO-87 17 Oct 12:32:47 12:36:13 39° 98° (E) 12:39:37 145.935 - 145.965
EO-79 17 Oct 12:48:32 12:52:47 77° 76° (ENE) 12:57:04 145.935-145.965
POLYITAN 1 17 Oct 12:52:13 12:56:29 85° 77° (ENE) 13:00:48 437.675
Oscar 19 17 Oct 12:54:02 12:54:55 10° 60° (ENE) 12:55:49 437.125/150
YUBILEINY 17 Oct 12:56:50 13:02:49 20° 294° (WNW) 13:08:52 435.215
AIST 2D 17 Oct 12:58:11 13:00:58 22° 264° (W) 13:03:46 435.315
SPROUT 17 Oct 13:06:52 13:09:19 15° 92° (E) 13:11:45 437.525
nSIGHT-1 17 Oct 13:10:28 13:13:09 24° 330° (NNW) 13:15:50 .
QB50P2 17 Oct 13:12:25 13:16:32 49° 260° (W) 13:20:42 145.880/145.840
ESTCUBE 1 17 Oct 13:18:11 13:22:41 90° 254° (WSW) 13:27:09 437.505/2401.250
NANOSAT C BR1 17 Oct 13:19:19 13:23:26 51° 260° (W) 13:27:36 145.865
VELOX 1 17 Oct 13:24:30 13:27:17 16° 93° (E) 13:30:03 145.980
NO-84 17 Oct 13:31:32 13:34:47 33° 233° (SW) 13:37:46 435.350 FM
DUCHIFAT 1 17 Oct 13:32:13 13:36:13 41° 261° (W) 13:40:16 145.980
SRMSAT 17 Oct 13:34:19 13:36:55 13° 181° (S) 13:39:32 437.500
ISS 17 Oct 13:34:54 13:37:20 19° 334° (NNW) 13:39:46 437.550
M-CUBED/EXP-1 PRIME 17 Oct 13:39:52 13:42:53 28° 68° (ENE) 13:45:48 437.505
BEESAT 2 17 Oct 13:51:02 13:53:48 18° 110° (ESE) 13:56:35 435.950
BUGSAT 1 17 Oct 13:53:31 13:57:39 82° 78° (ENE) 14:01:53 437.445
LO-87 17 Oct 14:07:52 14:09:14 12° 293° (WNW) 14:10:35 145.935 - 145.965
BEESAT 3 17 Oct 14:14:44 14:18:41 63° 302° (WNW) 14:22:41 437.485
Oscar 19 17 Oct 14:28:15 14:33:26 88° 73° (ENE) 14:38:38 437.125/150
Gurwin Techsat 1B 17 Oct 14:32:11 14:37:26 66° 74° (ENE) 14:42:43 435.225
DX 1 17 Oct 14:41:04 14:44:47 27° 97° (E) 14:48:30 434.975-435.025
SPROUT 17 Oct 14:41:19 14:45:23 42° 287° (WNW) 14:49:24 437.525
RS-15 17 Oct 14:43:22 14:44:26 10° 267° (W) 14:45:31 29.354- 29.394
AO-85 17 Oct 14:52:42 14:56:31 62° 118° (ESE) 15:00:24 145.980
VELOX 1 17 Oct 14:59:43 15:03:53 41° 288° (WNW) 15:08:02 145.980
UKube-1 17 Oct 15:12:06 15:16:08 37° 99° (E) 15:20:09 .
M-CUBED/EXP-1 PRIME 17 Oct 15:15:33 15:17:21 13° 260° (W) 15:19:06 437.505
AO-7 17 Oct 15:19:07 15:26:36 40° 62° (ENE) 15:34:05 .
BEESAT 2 17 Oct 15:27:34 15:31:15 35° 306° (NW) 15:34:59 435.950
50 SAT 17 Oct 15:38:00 15:41:01 34° 287° (WNW) 15:44:02 437.505
Gurwin Techsat 1B 17 Oct 16:15:12 16:17:49 14° 269° (W) 16:20:26 435.225
DX 1 17 Oct 16:17:18 16:20:50 24° 292° (WNW) 16:24:21 434.975-435.025
SO-50 17 Oct 16:23:17 16:26:13 16° 45° (NE) 16:29:09 436.795
ITAMSAT 1 17 Oct 16:32:40 16:37:50 84° 74° (ENE) 16:43:04 435.822/435.867
ITUPSAT 1 17 Oct 16:35:02 16:39:28 36° 98° (E) 16:43:51 437.325
AO-85 17 Oct 16:35:41 16:37:19 12° 316° (NW) 16:38:59 145.980
MOZHAYETS 4 17 Oct 16:37:29 16:41:54 45° 99° (E) 16:46:16
UKube-1 17 Oct 16:48:57 16:51:50 18° 294° (WNW) 16:54:43 .
ISS 17 Oct 16:52:22 16:52:40 10° 15° (NNE) 16:52:58 437.550
BEESAT 17 Oct 16:52:38 16:57:22 58° 101° (E) 17:02:03 436.000
DOVE 4 17 Oct 17:05:07 17:07:36 16° 66° (ENE) 17:10:06 437.250
AO-7 17 Oct 17:11:22 17:19:11 45° 259° (W) 17:27:03 .
Tancredo 1 17 Oct 17:11:24 17:13:15 81° 217° (SW) 17:15:03 437.200
